Location: Newark
(44.6768°N, 22.5302°E)
Time: 14:30:29
(UTC+00:00)

AO-92 - Pass Details

Date: 02 July 2022
Orbit: 470 x 481 km, 97.4° (Epoch: 07 August)

Event Time Altitude Azimuth Distance (km) Brightness Sun altitude
Exits shadow 20:50:52 36° 210° (SSW) 777 ? -18.3°
Maximum altitude 20:51:55 50° 261° (W) 623 ? -18.4°
Drops below altitude 10° 20:55:25 10° 337° (NNW) 1,668 ? -18.7°
Sets 20:57:32 0° 343° (NNW) 2,555 ? -18.8°
